| time (UTC) | temp C | wind direction | speed KPH | gust KPH | rain 1hr cm | rain 24hr cm | rain mn cm | humidity % | barometer mb |
| 20260509105327 | 16 | 135 | 1.6 | 4.8 | 0.00 | 0.00 | 0.00 | 58 | 1020.3 |
| 20260509104832 | 16 | 71 | 3.2 | 4.8 | 0.00 | 0.00 | 0.00 | 58 | 1020.4 |
| 20260509104314 | 16 | 148 | 1.6 | 6.4 | 0.00 | 0.00 | 0.00 | 59 | 1020.3 |
| 20260509103816 | 16 | 106 | 3.2 | 6.4 | 0.00 | 0.00 | 0.00 | 57 | 1020.4 |
| 20260509103339 | 16 | 45 | 0.0 | 4.8 | 0.00 | 0.00 | 0.00 | 57 | 1020.4 |
| 20260509102821 | 16 | 143 | 0.0 | 6.4 | 0.00 | 0.00 | 0.00 | 58 | 1020.4 |
| 20260509102344 | 16 | 59 | 3.2 | 6.4 | 0.00 | 0.00 | 0.00 | 58 | 1020.3 |
| 20260509101824 | 16 | 129 | 0.0 | 11.3 | 0.00 | 0.00 | 0.00 | 58 | 1020.4 |
| 20260509101347 | 16 | 65 | 6.4 | 11.3 | 0.00 | 0.00 | 0.00 | 57 | 1020.4 |
| 20260509100848 | 16 | 47 | 4.8 | 8.0 | 0.00 | 0.00 | 0.00 | 57 | 1020.4 |
| 20260509100328 | 15 | 116 | 1.6 | 4.8 | 0.00 | 0.00 | 0.00 | 58 | 1020.5 |
| 20260509095827 | 16 | 229 | 1.6 | 3.2 | 0.00 | 0.00 | 0.00 | 57 | 1020.5 |
| 20260509095329 | 16 | 121 | 0.0 | 4.8 | 0.00 | 0.00 | 0.00 | 60 | 1020.5 |
| 20260509094830 | 15 | 122 | 1.6 | 4.8 | 0.00 | 0.00 | 0.00 | 60 | 1020.5 |
| 20260509094313 | 15 | 51 | 3.2 | 4.8 | 0.00 | 0.00 | 0.00 | 59 | 1020.6 |
| 20260509093814 | 16 | 136 | 0.0 | 1.6 | 0.00 | 0.00 | 0.00 | 61 | 1020.6 |
| 20260509093317 | 16 | 137 | 0.0 | 4.8 | 0.00 | 0.00 | 0.00 | 62 | 1020.6 |
| 20260509092819 | 15 | 129 | 1.6 | 6.4 | 0.00 | 0.00 | 0.00 | 61 | 1020.5 |
| 20260509092324 | 15 | 49 | 3.2 | 6.4 | 0.00 | 0.00 | 0.00 | 62 | 1020.5 |
| 20260509091823 | 15 | 89 | 1.6 | 6.4 | 0.00 | 0.00 | 0.00 | 62 | 1020.5 |
| 20260509091323 | 15 | 49 | 0.0 | 6.4 | 0.00 | 0.00 | 0.00 | 64 | 1020.5 |
| 20260509090824 | 15 | 23 | 3.2 | 6.4 | 0.00 | 0.00 | 0.00 | 63 | 1020.5 |
| 20260509090325 | 15 | 43 | 0.0 | 4.8 | 0.00 | 0.00 | 0.00 | 67 | 1020.5 |
| 20260509085825 | 14 | 49 | 0.0 | 6.4 | 0.00 | 0.00 | 0.00 | 69 | 1020.5 |
| 20260509085325 | 14 | 50 | 3.2 | 6.4 | 0.00 | 0.00 | 0.00 | 68 | 1020.5 |
| 20260509084826 | 14 | 41 | 1.6 | 6.4 | 0.00 | 0.00 | 0.00 | 68 | 1020.6 |
| 20260509084327 | 14 | 11 | 3.2 | 4.8 | 0.00 | 0.00 | 0.00 | 68 | 1020.6 |
| 20260509083314 | 13 | 21 | 0.0 | 6.4 | 0.00 | 0.00 | 0.00 | 71 | 1020.5 |
| 20260509082814 | 13 | 22 | 3.2 | 6.4 | 0.00 | 0.00 | 0.00 | 72 | 1020.5 |
| 20260509082314 | 13 | 44 | 1.6 | 8.0 | 0.00 | 0.00 | 0.00 | 71 | 1020.5 |
| 20260509081816 | 13 | 32 | 4.8 | 8.0 | 0.00 | 0.00 | 0.00 | 70 | 1020.5 |
| 20260509081315 | 13 | 19 | 1.6 | 9.7 | 0.00 | 0.00 | 0.00 | 70 | 1020.5 |
| 20260509080815 | 13 | 43 | 4.8 | 9.7 | 0.00 | 0.00 | 0.00 | 67 | 1020.5 |
| 20260509080316 | 13 | 10 | 1.6 | 6.4 | 0.00 | 0.00 | 0.00 | 66 | 1020.5 |
| 20260509075816 | 13 | 14 | 3.2 | 8.0 | 0.00 | 0.00 | 0.00 | 72 | 1020.5 |
| 20260509075319 | 13 | 2 | 6.4 | 8.0 | 0.00 | 0.00 | 0.00 | 72 | 1020.5 |
| 20260509074820 | 13 | 37 | 3.2 | 9.7 | 0.00 | 0.00 | 0.00 | 73 | 1020.5 |
| 20260509074323 | 13 | 71 | 3.2 | 9.7 | 0.00 | 0.00 | 0.00 | 77 | 1020.5 |
| 20260509073823 | 13 | 56 | 3.2 | 11.3 | 0.00 | 0.00 | 0.00 | 79 | 1020.5 |
| 20260509073346 | 13 | 54 | 4.8 | 8.0 | 0.00 | 0.00 | 0.00 | 78 | 1020.5 |
| 20260509072828 | 13 | 57 | 3.2 | 8.0 | 0.00 | 0.00 | 0.00 | 77 | 1020.6 |
| 20260509072330 | 13 | 61 | 3.2 | 8.0 | 0.00 | 0.00 | 0.00 | 79 | 1020.6 |
| 20260509071812 | 13 | 40 | 4.8 | 8.0 | 0.00 | 0.00 | 0.00 | 77 | 1020.5 |
| 20260509071314 | 12 | 93 | 3.2 | 11.3 | 0.00 | 0.00 | 0.00 | 81 | 1020.5 |
| 20260509070817 | 12 | 54 | 6.4 | 11.3 | 0.00 | 0.00 | 0.00 | 79 | 1020.5 |
| 20260509070319 | 13 | 54 | 4.8 | 9.7 | 0.00 | 0.00 | 0.00 | 80 | 1020.5 |
| 20260509065821 | 12 | 79 | 3.2 | 9.7 | 0.00 | 0.00 | 0.00 | 84 | 1020.5 |
| 20260509065324 | 12 | 50 | 6.4 | 9.7 | 0.00 | 0.00 | 0.00 | 83 | 1020.5 |
| 20260509064846 | 12 | 53 | 4.8 | 9.7 | 0.00 | 0.00 | 0.00 | 83 | 1020.5 |
| 20260509064327 | 12 | 56 | 4.8 | 8.0 | 0.00 | 0.00 | 0.00 | 82 | 1020.4 |
| 20260509063827 | 12 | 53 | 1.6 | 6.4 | 0.00 | 0.00 | 0.00 | 82 | 1020.4 |
| 20260509063329 | 12 | 231 | 0.0 | 3.2 | 0.00 | 0.00 | 0.00 | 82 | 1020.4 |
| 20260509062828 | 12 | 208 | 0.0 | 4.8 | 0.00 | 0.00 | 0.00 | 85 | 1020.3 |
| 20260509062331 | 12 | 261 | 0.0 | 3.2 | 0.00 | 0.00 | 0.00 | 87 | 1020.3 |
| 20260509061849 | 11 | 346 | 1.6 | 3.2 | 0.00 | 0.00 | 0.00 | 89 | 1020.3 |
| 20260509061330 | 11 | 262 | 0.0 | 4.8 | 0.00 | 0.00 | 0.00 | 91 | 1020.3 |
| 20260509060852 | 10 | 262 | 1.6 | 4.8 | 0.00 | 0.00 | 0.00 | 91 | 1020.3 |
| 20260509060314 | 10 | 270 | 1.6 | 3.2 | 0.00 | 0.00 | 0.00 | 92 | 1020.4 |
| 20260509055817 | 10 | 68 | 0.0 | 1.6 | 0.00 | 0.00 | 0.00 | 93 | 1020.4 |
| 20260509055317 | 10 | 68 | 0.0 | 1.6 | 0.00 | 0.00 | 0.00 | 93 | 1020.4 |
| 20260509054819 | 10 | 68 | 0.0 | 1.6 | 0.00 | 0.00 | 0.00 | 93 | 1020.4 |
| 20260509054318 | 9 | 68 | 0.0 | 3.2 | 0.00 | 0.00 | 0.00 | 93 | 1020.4 |
| 20260509053818 | 9 | 68 | 0.0 | 3.2 | 0.00 | 0.00 | 0.00 | 93 | 1020.4 |
| 20260509053318 | 9 | 68 | 0.0 | 0.0 | 0.00 | 0.00 | 0.00 | 93 | 1020.4 |
| 20260509052819 | 9 | 68 | 0.0 | 0.0 | 0.00 | 0.00 | 0.00 | 93 | 1020.3 |
| 20260509052320 | 9 | 68 | 0.0 | 0.0 | 0.00 | 0.00 | 0.00 | 94 | 1020.3 |
| 20260509051823 | 9 | 68 | 0.0 | 0.0 | 0.00 | 0.00 | 0.00 | 94 | 1020.3 |
| 20260509051327 | 9 | 68 | 0.0 | 0.0 | 0.00 | 0.00 | 0.00 | 94 | 1020.2 |
| 20260509050829 | 9 | 68 | 0.0 | 0.0 | 0.00 | 0.00 | 0.00 | 94 | 1020.2 |
| 20260509050329 | 9 | 68 | 0.0 | 0.0 | 0.00 | 0.00 | 0.00 | 94 | 1020.2 |
| 20260509045822 | 9 | 68 | 0.0 | 0.0 | 0.00 | 0.00 | 0.00 | 94 | 1020.2 |
| 20260509045323 | 9 | 68 | 0.0 | 0.0 | 0.00 | 0.00 | 0.00 | 94 | 1020.2 |
| 20260509044823 | 9 | 68 | 0.0 | 0.0 | 0.00 | 0.00 | 0.00 | 94 | 1020.1 |
| 20260509044326 | 9 | 68 | 0.0 | 0.0 | 0.00 | 0.00 | 0.00 | 94 | 1020.1 |
| 20260509043848 | 8 | 68 | 0.0 | 1.6 | 0.00 | 0.00 | 0.00 | 94 | 1020.1 |
| 20260509043330 | 8 | 68 | 0.0 | 1.6 | 0.00 | 0.00 | 0.00 | 94 | 1020.0 |
| 20260509042813 | 8 | 68 | 0.0 | 1.6 | 0.00 | 0.00 | 0.00 | 94 | 1020.0 |
| 20260509042316 | 8 | 68 | 0.0 | 0.0 | 0.00 | 0.00 | 0.00 | 94 | 1019.9 |
| 20260509041820 | 8 | 68 | 0.0 | 0.0 | 0.00 | 0.00 | 0.00 | 94 | 1020.0 |
| 20260509041342 | 8 | 68 | 0.0 | 0.0 | 0.00 | 0.00 | 0.00 | 94 | 1020.0 |
| 20260509040844 | 8 | 68 | 0.0 | 0.0 | 0.00 | 0.00 | 0.00 | 94 | 1020.0 |
| 20260509040325 | 8 | 68 | 0.0 | 0.0 | 0.00 | 0.00 | 0.00 | 94 | 1019.9 |
| 20260509035827 | 8 | 68 | 0.0 | 0.0 | 0.00 | 0.00 | 0.00 | 94 | 1020.0 |
| 20260509035329 | 8 | 68 | 0.0 | 0.0 | 0.00 | 0.00 | 0.00 | 94 | 1019.9 |
| 20260509034831 | 8 | 68 | 0.0 | 0.0 | 0.00 | 0.00 | 0.00 | 94 | 1019.9 |
| 20260509034314 | 8 | 68 | 0.0 | 0.0 | 0.00 | 0.00 | 0.00 | 94 | 1019.9 |
| 20260509033817 | 8 | 68 | 0.0 | 0.0 | 0.00 | 0.00 | 0.00 | 94 | 1019.9 |
| 20260509033319 | 8 | 68 | 0.0 | 0.0 | 0.00 | 0.00 | 0.00 | 94 | 1020.0 |
| 20260509032820 | 8 | 68 | 0.0 | 0.0 | 0.00 | 0.00 | 0.00 | 94 | 1020.0 |
| 20260509032343 | 8 | 68 | 0.0 | 0.0 | 0.00 | 0.00 | 0.00 | 93 | 1020.0 |
| 20260509031823 | 8 | 68 | 0.0 | 0.0 | 0.00 | 0.00 | 0.00 | 94 | 1020.0 |
| 20260509031346 | 8 | 68 | 0.0 | 0.0 | 0.00 | 0.00 | 0.00 | 93 | 1020.0 |
| 20260509030848 | 8 | 68 | 0.0 | 0.0 | 0.00 | 0.00 | 0.00 | 93 | 1020.1 |
| 20260509030312 | 8 | 68 | 0.0 | 0.0 | 0.00 | 0.00 | 0.00 | 93 | 1020.0 |
| 20260509025813 | 8 | 68 | 0.0 | 1.6 | 0.00 | 0.00 | 0.00 | 93 | 1020.0 |
| 20260509025315 | 8 | 68 | 0.0 | 1.6 | 0.00 | 0.00 | 0.00 | 93 | 1020.1 |
| 20260509024816 | 8 | 68 | 0.0 | 0.0 | 0.00 | 0.00 | 0.00 | 93 | 1020.1 |
| 20260509024318 | 8 | 68 | 0.0 | 0.0 | 0.00 | 0.00 | 0.00 | 93 | 1020.2 |
| 20260509023839 | 8 | 68 | 0.0 | 0.0 | 0.00 | 0.00 | 0.00 | 92 | 1020.2 |
| 20260509023319 | 8 | 68 | 0.0 | 0.0 | 0.00 | 0.00 | 0.00 | 92 | 1020.1 |
| 20260509022819 | 8 | 68 | 0.0 | 0.0 | 0.00 | 0.00 | 0.00 | 92 | 1020.1 |
| 20260509022340 | 8 | 68 | 0.0 | 1.6 | 0.00 | 0.00 | 0.00 | 92 | 1020.1 |
| 20260509021819 | 8 | 68 | 0.0 | 1.6 | 0.00 | 0.00 | 0.00 | 91 | 1020.1 |
| 20260509021336 | 9 | 68 | 0.0 | 1.6 | 0.00 | 0.00 | 0.00 | 91 | 1020.1 |
| 20260509020836 | 9 | 68 | 0.0 | 1.6 | 0.00 | 0.00 | 0.00 | 92 | 1020.1 |
| 20260509020319 | 9 | 68 | 0.0 | 0.0 | 0.00 | 0.00 | 0.00 | 92 | 1020.1 |
| 20260509015822 | 9 | 68 | 0.0 | 3.2 | 0.00 | 0.00 | 0.00 | 92 | 1020.1 |
| 20260509015343 | 9 | 68 | 1.6 | 3.2 | 0.00 | 0.00 | 0.00 | 92 | 1020.1 |
| 20260509014825 | 8 | 79 | 0.0 | 0.0 | 0.00 | 0.00 | 0.00 | 91 | 1020.0 |
| 20260509014324 | 8 | 78 | 0.0 | 0.0 | 0.00 | 0.00 | 0.00 | 92 | 1020.0 |
| 20260509013843 | 8 | 79 | 0.0 | 0.0 | 0.00 | 0.00 | 0.00 | 91 | 1019.9 |
| 20260509013322 | 9 | 79 | 0.0 | 0.0 | 0.00 | 0.00 | 0.00 | 91 | 1020.0 |
| 20260509012823 | 9 | 79 | 0.0 | 0.0 | 0.00 | 0.00 | 0.00 | 91 | 1020.0 |
| 20260509012325 | 9 | 79 | 0.0 | 0.0 | 0.00 | 0.00 | 0.00 | 91 | 1020.0 |
| 20260509011824 | 9 | 79 | 0.0 | 0.0 | 0.00 | 0.00 | 0.00 | 90 | 1020.0 |
| 20260509011345 | 9 | 78 | 0.0 | 1.6 | 0.00 | 0.00 | 0.00 | 89 | 1019.9 |
| 20260509010825 | 9 | 78 | 0.0 | 1.6 | 0.00 | 0.00 | 0.00 | 89 | 1019.9 |
| 20260509010328 | 10 | 78 | 0.0 | 3.2 | 0.00 | 0.00 | 0.00 | 89 | 1019.9 |
| 20260509005830 | 10 | 78 | 1.6 | 3.2 | 0.00 | 0.00 | 0.00 | 89 | 1019.9 |
| 20260509005329 | 10 | 79 | 1.6 | 3.2 | 0.00 | 0.00 | 0.00 | 89 | 1019.9 |
| 20260509004831 | 10 | 79 | 0.0 | 3.2 | 0.00 | 0.00 | 0.00 | 88 | 1019.9 |
| 20260509004332 | 10 | 79 | 0.0 | 3.2 | 0.00 | 0.00 | 0.00 | 88 | 1019.9 |
| 20260509003832 | 10 | 78 | 0.0 | 4.8 | 0.00 | 0.00 | 0.00 | 88 | 1019.9 |
| 20260509003313 | 10 | 78 | 1.6 | 4.8 | 0.00 | 0.00 | 0.00 | 88 | 1019.9 |
| 20260509002814 | 10 | 53 | 1.6 | 4.8 | 0.00 | 0.00 | 0.00 | 88 | 1019.9 |
| 20260509002314 | 10 | 36 | 1.6 | 9.7 | 0.00 | 0.00 | 0.00 | 89 | 1019.9 |
| 20260509001815 | 10 | 60 | 4.8 | 9.7 | 0.00 | 0.00 | 0.00 | 90 | 1019.8 |
| 20260509001315 | 10 | 56 | 1.6 | 3.2 | 0.00 | 0.00 | 0.00 | 90 | 1019.9 |
| 20260509000818 | 10 | 23 | 0.0 | 3.2 | 0.00 | 0.00 | 0.00 | 91 | 1019.9 |
| 20260509000320 | 10 | 23 | 1.6 | 3.2 | 0.00 | 0.00 | 0.00 | 90 | 1019.9 |
| 20260508235842 | 10 | 15 | 1.6 | 3.2 | 0.00 | 0.10 | 0.00 | 90 | 1019.9 |
| 20260508235323 | 10 | 15 | 1.6 | 3.2 | 0.00 | 0.10 | 0.00 | 90 | 1019.9 |
| 20260508234844 | 10 | 15 | 0.0 | 1.6 | 0.00 | 0.10 | 0.00 | 90 | 1019.9 |
| 20260508234320 | 10 | 15 | 0.0 | 3.2 | 0.00 | 0.10 | 0.00 | 90 | 1019.9 |
| 20260508233821 | 10 | 15 | 1.6 | 3.2 | 0.00 | 0.10 | 0.00 | 90 | 1019.9 |
| 20260508233321 | 10 | 14 | 1.6 | 3.2 | 0.00 | 0.10 | 0.00 | 90 | 1019.9 |
| 20260508232822 | 10 | 3 | 1.6 | 4.8 | 0.00 | 0.10 | 0.00 | 90 | 1019.9 |
| 20260508232322 | 10 | 8 | 1.6 | 3.2 | 0.00 | 0.10 | 0.00 | 90 | 1020.0 |
| 20260508231822 | 10 | 22 | 0.0 | 1.6 | 0.00 | 0.10 | 0.00 | 89 | 1020.1 |
| 20260508231323 | 10 | 22 | 0.0 | 0.0 | 0.00 | 0.10 | 0.00 | 89 | 1020.1 |
| 20260508230844 | 10 | 22 | 0.0 | 0.0 | 0.00 | 0.10 | 0.00 | 89 | 1020.1 |
| 20260508230325 | 10 | 22 | 0.0 | 0.0 | 0.00 | 0.10 | 0.00 | 88 | 1020.1 |
| 20260508225845 | 10 | 22 | 0.0 | 0.0 | 0.00 | 0.20 | 0.00 | 88 | 1020.1 |
| 20260508225327 | 10 | 22 | 0.0 | 3.2 | 0.00 | 0.20 | 0.00 | 88 | 1020.1 |
| 20260508224830 | 10 | 26 | 0.0 | 1.6 | 0.00 | 0.20 | 0.00 | 88 | 1020.1 |
| 20260508224313 | 10 | 26 | 0.0 | 0.0 | 0.00 | 0.20 | 0.00 | 88 | 1020.1 |
| 20260508223815 | 10 | 26 | 0.0 | 0.0 | 0.00 | 0.20 | 0.00 | 87 | 1020.1 |
| 20260508223317 | 10 | 26 | 0.0 | 0.0 | 0.00 | 0.20 | 0.00 | 87 | 1020.2 |
| 20260508222821 | 10 | 26 | 0.0 | 1.6 | 0.00 | 0.20 | 0.00 | 87 | 1020.2 |
| 20260508222324 | 10 | 26 | 0.0 | 1.6 | 0.00 | 0.20 | 0.00 | 86 | 1020.2 |
| 20260508221826 | 11 | 26 | 1.6 | 1.6 | 0.00 | 0.20 | 0.00 | 86 | 1020.2 |
| 20260508221327 | 11 | 26 | 0.0 | 0.0 | 0.00 | 0.20 | 0.00 | 85 | 1020.1 |
| 20260508220829 | 11 | 26 | 0.0 | 0.0 | 0.00 | 0.20 | 0.00 | 85 | 1020.2 |
| 20260508215827 | 11 | 26 | 0.0 | 3.2 | 0.00 | 0.30 | 0.05 | 85 | 1020.2 |
| 20260508215326 | 11 | 26 | 1.6 | 3.2 | 0.00 | 0.30 | 0.05 | 85 | 1020.2 |
| 20260508214826 | 11 | 65 | 0.0 | 3.2 | 0.00 | 0.30 | 0.05 | 84 | 1020.2 |
| 20260508214330 | 11 | 65 | 1.6 | 3.2 | 0.00 | 0.30 | 0.05 | 82 | 1020.2 |
| 20260508213815 | 11 | 65 | 0.0 | 1.6 | 0.00 | 0.30 | 0.05 | 81 | 1020.2 |
| 20260508213339 | 11 | 65 | 0.0 | 1.6 | 0.00 | 0.30 | 0.05 | 81 | 1020.2 |
| 20260508212823 | 11 | 65 | 0.0 | 3.2 | 0.00 | 0.30 | 0.05 | 81 | 1020.2 |
| 20260508212325 | 11 | 65 | 0.0 | 3.2 | 0.00 | 0.30 | 0.05 | 81 | 1020.1 |
| 20260508211825 | 11 | 65 | 0.0 | 3.2 | 0.00 | 0.30 | 0.05 | 81 | 1020.2 |
| 20260508211327 | 11 | 65 | 1.6 | 4.8 | 0.00 | 0.30 | 0.05 | 82 | 1020.1 |
| 20260508210830 | 11 | 49 | 1.6 | 4.8 | 0.00 | 0.30 | 0.05 | 82 | 1020.1 |
| 20260508210329 | 11 | 39 | 0.0 | 3.2 | 0.00 | 0.30 | 0.05 | 82 | 1020.1 |
| 20260508205832 | 11 | 40 | 1.6 | 3.2 | 0.00 | 0.30 | 0.05 | 81 | 1020.1 |
| 20260508205332 | 11 | 39 | 0.0 | 6.4 | 0.00 | 0.30 | 0.05 | 80 | 1020.2 |
| 20260508204813 | 11 | 39 | 1.6 | 6.4 | 0.00 | 0.30 | 0.05 | 80 | 1020.1 |
| 20260508204313 | 11 | 46 | 3.2 | 6.4 | 0.00 | 0.30 | 0.05 | 80 | 1020.1 |
| 20260508203816 | 11 | 62 | 3.2 | 9.7 | 0.00 | 0.30 | 0.05 | 79 | 1020.0 |
| 20260508203317 | 11 | 63 | 4.8 | 9.7 | 0.00 | 0.30 | 0.05 | 79 | 1020.0 |
| 20260508202840 | 11 | 48 | 6.4 | 9.7 | 0.00 | 0.30 | 0.05 | 79 | 1019.9 |
| 20260508202336 | 11 | 64 | 4.8 | 8.0 | 0.00 | 0.30 | 0.05 | 79 | 1019.9 |
| 20260508201818 | 11 | 48 | 1.6 | 6.4 | 0.00 | 0.30 | 0.05 | 79 | 1020.0 |
| 20260508201321 | 11 | 48 | 4.8 | 6.4 | 0.00 | 0.30 | 0.05 | 80 | 1020.0 |
| 20260508200824 | 12 | 58 | 3.2 | 8.0 | 0.00 | 0.30 | 0.05 | 79 | 1020.0 |
| 20260508200327 | 12 | 54 | 3.2 | 8.0 | 0.00 | 0.30 | 0.05 | 79 | 1020.0 |
| 20260508195827 | 12 | 47 | 4.8 | 8.0 | 0.00 | 0.30 | 0.05 | 79 | 1019.9 |
| 20260508195330 | 12 | 44 | 4.8 | 8.0 | 0.00 | 0.30 | 0.05 | 79 | 1019.9 |
| 20260508194813 | 12 | 56 | 3.2 | 9.7 | 0.00 | 0.30 | 0.05 | 79 | 1019.9 |
| 20260508194315 | 12 | 53 | 4.8 | 8.0 | 0.00 | 0.30 | 0.05 | 79 | 1019.9 |
| 20260508193819 | 12 | 45 | 4.8 | 9.7 | 0.00 | 0.30 | 0.05 | 78 | 1019.9 |
| 20260508193320 | 12 | 70 | 6.4 | 9.7 | 0.00 | 0.30 | 0.05 | 78 | 1019.9 |
| 20260508192843 | 12 | 39 | 4.8 | 9.7 | 0.00 | 0.30 | 0.05 | 77 | 1019.8 |
| 20260508192326 | 12 | 38 | 6.4 | 9.7 | 0.00 | 0.30 | 0.05 | 77 | 1019.8 |
| 20260508191830 | 12 | 71 | 3.2 | 8.0 | 0.00 | 0.30 | 0.05 | 76 | 1019.7 |
| 20260508191335 | 12 | 32 | 3.2 | 8.0 | 0.00 | 0.30 | 0.05 | 76 | 1019.7 |
| 20260508190839 | 12 | 47 | 4.8 | 8.0 | 0.00 | 0.30 | 0.05 | 75 | 1019.7 |
| 20260508190319 | 12 | 52 | 3.2 | 8.0 | 0.00 | 0.30 | 0.05 | 75 | 1019.6 |
| 20260508185823 | 12 | 16 | 4.8 | 8.0 | 0.00 | 0.41 | 0.05 | 75 | 1019.6 |
| 20260508185327 | 12 | 53 | 4.8 | 9.7 | 0.00 | 0.41 | 0.05 | 75 | 1019.6 |
| 20260508184831 | 12 | 36 | 3.2 | 8.0 | 0.00 | 0.41 | 0.05 | 74 | 1019.5 |
| 20260508184316 | 12 | 42 | 4.8 | 8.0 | 0.00 | 0.41 | 0.05 | 74 | 1019.6 |
| 20260508183819 | 12 | 55 | 4.8 | 8.0 | 0.00 | 0.41 | 0.05 | 74 | 1019.5 |
| 20260508183320 | 12 | 47 | 3.2 | 8.0 | 0.00 | 0.41 | 0.05 | 74 | 1019.5 |
| 20260508182842 | 12 | 46 | 3.2 | 8.0 | 0.00 | 0.41 | 0.05 | 73 | 1019.5 |
| 20260508182323 | 12 | 54 | 3.2 | 6.4 | 0.00 | 0.41 | 0.05 | 73 | 1019.4 |
| 20260508181824 | 12 | 32 | 3.2 | 6.4 | 0.00 | 0.41 | 0.05 | 73 | 1019.3 |
| 20260508181324 | 12 | 32 | 3.2 | 8.0 | 0.00 | 0.41 | 0.05 | 73 | 1019.3 |
| 20260508180822 | 12 | 48 | 3.2 | 8.0 | 0.00 | 0.41 | 0.05 | 74 | 1019.2 |
| 20260508180323 | 12 | 3 | 1.6 | 6.4 | 0.00 | 0.41 | 0.05 | 75 | 1019.2 |
| 20260508175843 | 12 | 41 | 3.2 | 9.7 | 0.00 | 0.61 | 0.05 | 75 | 1019.1 |
| 20260508175322 | 12 | 30 | 3.2 | 11.3 | 0.00 | 0.61 | 0.05 | 74 | 1019.2 |
| 20260508174824 | 12 | 18 | 3.2 | 11.3 | 0.00 | 0.61 | 0.05 | 74 | 1019.1 |
| 20260508174326 | 12 | 32 | 4.8 | 9.7 | 0.00 | 0.61 | 0.05 | 75 | 1019.1 |
| 20260508173829 | 12 | 32 | 3.2 | 9.7 | 0.00 | 0.61 | 0.05 | 75 | 1019.1 |
| 20260508173312 | 12 | 30 | 3.2 | 6.4 | 0.00 | 0.61 | 0.05 | 75 | 1019.1 |
| 20260508172815 | 12 | 41 | 3.2 | 6.4 | 0.00 | 0.61 | 0.05 | 75 | 1019.1 |
| 20260508172317 | 12 | 45 | 4.8 | 6.4 | 0.00 | 0.61 | 0.05 | 74 | 1019.1 |
| 20260508171840 | 12 | 52 | 3.2 | 6.4 | 0.00 | 0.61 | 0.05 | 74 | 1019.1 |
| 20260508171322 | 12 | 44 | 3.2 | 9.7 | 0.00 | 0.61 | 0.05 | 74 | 1019.0 |
| 20260508170824 | 12 | 54 | 4.8 | 9.7 | 0.00 | 0.61 | 0.05 | 73 | 1019.0 |
| 20260508170327 | 12 | 35 | 3.2 | 8.0 | 0.00 | 0.61 | 0.05 | 73 | 1019.0 |
| 20260508165831 | 12 | 70 | 3.2 | 11.3 | 0.00 | 1.70 | 0.05 | 73 | 1018.9 |
| 20260508165315 | 12 | 42 | 4.8 | 11.3 | 0.00 | 1.70 | 0.05 | 73 | 1018.8 |
| 20260508164820 | 12 | 27 | 4.8 | 9.7 | 0.00 | 1.70 | 0.05 | 74 | 1018.8 |
| 20260508164326 | 12 | 64 | 3.2 | 8.0 | 0.00 | 1.70 | 0.05 | 73 | 1018.9 |
| 20260508163832 | 12 | 61 | 3.2 | 8.0 | 0.00 | 1.70 | 0.05 | 73 | 1018.9 |
| 20260508163313 | 12 | 30 | 4.8 | 8.0 | 0.00 | 1.70 | 0.05 | 72 | 1018.9 |
| 20260508162836 | 12 | 51 | 3.2 | 8.0 | 0.00 | 1.70 | 0.05 | 71 | 1018.9 |
| 20260508162338 | 13 | 62 | 4.8 | 6.4 | 0.00 | 1.70 | 0.05 | 72 | 1018.9 |
| 20260508161819 | 13 | 34 | 3.2 | 9.7 | 0.00 | 1.70 | 0.05 | 72 | 1018.9 |
| 20260508161321 | 13 | 29 | 3.2 | 9.7 | 0.00 | 1.70 | 0.05 | 72 | 1019.0 |
| 20260508160823 | 13 | 46 | 3.2 | 11.3 | 0.00 | 1.70 | 0.05 | 72 | 1018.9 |
| 20260508160323 | 13 | 46 | 4.8 | 11.3 | 0.00 | 1.70 | 0.05 | 71 | 1019.0 |
| 20260508155823 | 13 | 21 | 4.8 | 8.0 | 0.00 | 2.21 | 0.05 | 71 | 1018.9 |
| 20260508155326 | 13 | 39 | 3.2 | 8.0 | 0.00 | 2.21 | 0.05 | 71 | 1018.9 |
| 20260508154829 | 13 | 65 | 3.2 | 8.0 | 0.00 | 2.21 | 0.05 | 71 | 1018.9 |
| 20260508154314 | 13 | 62 | 4.8 | 9.7 | 0.00 | 2.21 | 0.05 | 71 | 1018.9 |
| 20260508153817 | 13 | 55 | 8.0 | 14.5 | 0.00 | 2.21 | 0.05 | 70 | 1018.9 |
| 20260508153322 | 13 | 63 | 6.4 | 9.7 | 0.00 | 2.21 | 0.05 | 70 | 1018.8 |
| 20260508152827 | 13 | 58 | 4.8 | 12.9 | 0.00 | 2.21 | 0.05 | 70 | 1018.8 |
| 20260508152330 | 13 | 34 | 6.4 | 12.9 | 0.00 | 2.21 | 0.05 | 69 | 1018.8 |
| 20260508151831 | 13 | 53 | 8.0 | 11.3 | 0.00 | 2.21 | 0.05 | 68 | 1018.8 |
| 20260508151331 | 13 | 56 | 4.8 | 9.7 | 0.00 | 2.21 | 0.05 | 69 | 1018.8 |
| 20260508150829 | 13 | 44 | 4.8 | 11.3 | 0.00 | 2.21 | 0.05 | 68 | 1018.7 |
| 20260508150330 | 13 | 53 | 1.6 | 6.4 | 0.00 | 2.21 | 0.05 | 68 | 1018.8 |
| 20260508145829 | 13 | 53 | 0.0 | 3.2 | 0.00 | 2.21 | 0.05 | 69 | 1018.8 |
| 20260508145330 | 13 | 53 | 1.6 | 4.8 | 0.00 | 2.21 | 0.05 | 67 | 1018.9 |
| 20260508144831 | 13 | 57 | 1.6 | 6.4 | 0.00 | 2.21 | 0.05 | 67 | 1018.9 |
| 20260508144314 | 13 | 58 | 1.6 | 6.4 | 0.00 | 2.21 | 0.05 | 68 | 1018.9 |
| 20260508143838 | 13 | 55 | 1.6 | 6.4 | 0.00 | 2.21 | 0.05 | 66 | 1018.8 |
| 20260508143320 | 13 | 61 | 1.6 | 6.4 | 0.00 | 2.21 | 0.05 | 67 | 1018.8 |
| 20260508142823 | 14 | 50 | 0.0 | 4.8 | 0.00 | 2.21 | 0.05 | 67 | 1018.9 |
| 20260508142326 | 14 | 133 | 1.6 | 4.8 | 0.00 | 2.21 | 0.05 | 67 | 1018.9 |
| 20260508141829 | 14 | 110 | 0.0 | 6.4 | 0.00 | 2.21 | 0.05 | 68 | 1018.9 |
| 20260508141332 | 14 | 49 | 3.2 | 6.4 | 0.00 | 2.21 | 0.05 | 67 | 1018.9 |
| 20260508140835 | 13 | 36 | 0.0 | 6.4 | 0.00 | 2.21 | 0.05 | 69 | 1019.0 |
| 20260508140359 | 13 | 7 | 1.6 | 9.7 | 0.00 | 2.21 | 0.05 | 70 | 1018.9 |
| 20260508135842 | 13 | 23 | 6.4 | 9.7 | 0.00 | 2.21 | 0.05 | 68 | 1019.0 |
| 20260508135322 | 13 | 58 | 4.8 | 9.7 | 0.00 | 2.21 | 0.05 | 69 | 1018.9 |
| 20260508134825 | 13 | 46 | 1.6 | 8.0 | 0.00 | 2.21 | 0.05 | 69 | 1018.9 |
| 20260508134327 | 13 | 33 | 3.2 | 6.4 | 0.00 | 2.21 | 0.05 | 70 | 1018.9 |
| 20260508133830 | 13 | 51 | 3.2 | 8.0 | 0.00 | 2.21 | 0.05 | 71 | 1018.9 |
| 20260508133313 | 13 | 46 | 4.8 | 9.7 | 0.00 | 2.21 | 0.05 | 71 | 1018.9 |
| 20260508132814 | 13 | 8 | 3.2 | 9.7 | 0.00 | 2.21 | 0.05 | 71 | 1018.9 |
| 20260508132318 | 13 | 51 | 1.6 | 9.7 | 0.00 | 2.21 | 0.05 | 71 | 1018.9 |
| 20260508131822 | 13 | 53 | 6.4 | 11.3 | 0.00 | 2.21 | 0.05 | 69 | 1018.9 |
| 20260508131344 | 13 | 68 | 4.8 | 11.3 | 0.00 | 2.21 | 0.05 | 70 | 1019.0 |
| 20260508130825 | 13 | 349 | 3.2 | 9.7 | 0.00 | 2.21 | 0.05 | 71 | 1019.0 |
| 20260508130349 | 13 | 8 | 4.8 | 9.7 | 0.00 | 2.21 | 0.05 | 69 | 1019.0 |
| 20260508125829 | 14 | 49 | 3.2 | 11.3 | 0.00 | 2.21 | 0.05 | 70 | 1019.1 |
| 20260508125329 | 13 | 51 | 3.2 | 11.3 | 0.00 | 2.21 | 0.05 | 71 | 1019.1 |
| 20260508124830 | 14 | 48 | 6.4 | 11.3 | 0.00 | 2.21 | 0.05 | 70 | 1019.1 |
| 20260508124313 | 14 | 44 | 4.8 | 8.0 | 0.00 | 2.21 | 0.05 | 68 | 1019.2 |
| 20260508123817 | 14 | 91 | 1.6 | 8.0 | 0.00 | 2.21 | 0.05 | 68 | 1019.2 |
| 20260508123320 | 14 | 125 | 4.8 | 8.0 | 0.00 | 2.21 | 0.05 | 68 | 1019.2 |
| 20260508122826 | 15 | 57 | 3.2 | 9.7 | 0.00 | 2.21 | 0.05 | 69 | 1019.2 |
| 20260508122327 | 14 | 57 | 3.2 | 11.3 | 0.00 | 2.21 | 0.05 | 68 | 1019.2 |
| 20260508121847 | 14 | 71 | 3.2 | 11.3 | 0.00 | 2.21 | 0.05 | 71 | 1019.1 |
| 20260508121327 | 13 | 49 | 6.4 | 11.3 | 0.00 | 2.21 | 0.05 | 71 | 1019.1 |
| 20260508120828 | 13 | 50 | 6.4 | 11.3 | 0.00 | 2.21 | 0.05 | 72 | 1019.1 |
| 20260508120327 | 13 | 49 | 8.0 | 11.3 | 0.00 | 2.21 | 0.05 | 69 | 1019.1 |
| 20260508115848 | 13 | 38 | 4.8 | 9.7 | 0.00 | 2.21 | 0.05 | 72 | 1019.2 |
| 20260508115328 | 13 | 11 | 4.8 | 9.7 | 0.00 | 2.21 | 0.05 | 70 | 1019.1 |
| 20260508114829 | 13 | 50 | 4.8 | 9.7 | 0.00 | 2.21 | 0.05 | 70 | 1019.2 |
| 20260508114332 | 13 | 45 | 3.2 | 8.0 | 0.00 | 2.21 | 0.05 | 70 | 1019.2 |
| 20260508113814 | 13 | 53 | 3.2 | 9.7 | 0.00 | 2.21 | 0.05 | 71 | 1019.3 |
| 20260508113336 | 13 | 70 | 4.8 | 9.7 | 0.00 | 2.21 | 0.05 | 70 | 1019.2 |
| 20260508112819 | 12 | 346 | 4.8 | 9.7 | 0.00 | 2.21 | 0.05 | 72 | 1019.3 |
| 20260508112322 | 12 | 47 | 1.6 | 8.0 | 0.00 | 2.21 | 0.05 | 72 | 1019.3 |
| 20260508111824 | 12 | 27 | 3.2 | 12.9 | 0.00 | 2.21 | 0.05 | 72 | 1019.3 |
| 20260508111327 | 12 | 46 | 9.7 | 12.9 | 0.00 | 2.21 | 0.05 | 73 | 1019.3 |
| 20260508110830 | 13 | 44 | 6.4 | 11.3 | 0.00 | 2.21 | 0.05 | 72 | 1019.3 |
| 20260508110313 | 12 | 27 | 1.6 | 11.3 | 0.00 | 2.21 | 0.05 | 74 | 1019.3 |
| 20260508105817 | 12 | 46 | 3.2 | 11.3 | 0.00 | 2.59 | 0.05 | 73 | 1019.4 |